Погода в Моровом

Россия / Республика Коми     61°30′08″N   50°36′46″E
темп.,
°C
ветер,
м/с
пор.,
м/с
влажн.,
%
обл.,
%
осадки,
мм/ч
давл.,
гПа
погр.,
м
17 июня, чт
чт1700:00+9зсз311916 0.0 1010235
03:00+7ссз269271 0.0 1012147
06:00+10с2568100 0.0 1014366
09:00+15ссз244430 0.0 10141440
12:00+16з2441100 0.0 10132061
15:00+10сз3893100 1.0 1016525
18:00+12сз378556 0.6 1017809
21:00+8сз399587 1.1 1020402
18 июня, пт
пт1800:00+6сз26975 0.0 1022116
03:00+6з23955 0.0 102366
06:00+10з247919 0.0 1023257
09:00+16з4739100 0.0 10221716
12:00+19з473481 0.0 10212170
15:00+17св2453100 0.0 1019327
18:00+12з2588100 0.6 1019123
21:00+12ююз2697100 1.3 1018183
19 июня, сб
сб1900:00+11ююз2497100 0.1 101782
03:00+11ююз2498100 0.1 101685
06:00+16зюз3892100 0.0 1015268
09:00+17зюз3985100 0.0 1014373
12:00+26з6103778 0.0 10111765
15:00+24зсз5125683 0.0 10111382
18:00+18зсз4149465 2.3 1013779
21:00+17сз4118720 2.3 1015646
20 июня, вс
вс2000:00+13сз3109693 0.0 1017337
03:00+12ссз289296 0.0 1019319
06:00+13с34655 0.0 1022567
09:00+17с2348100 0.0 1022947
12:00+20с123914 0.0 1021961
15:00+22зсз123571 0.0 10201296
18:00+21в23450 0.0 1019540
21:00+15вюв395966 0.0 1018206
21 июня, пн
пн2100:00+16ююв3125841 0.0 1017328
03:00+15ююв277556 0.0 1016161
06:00+21зюз376715 0.0 1015318
09:00+28з494281 0.0 10141469
12:00+30зсз58345 0.0 10132568
15:00+28сз594695 0.0 10141465
18:00+28ссз254871 0.0 1013759
21:00+22зсз39655 0.0 1014234